Showing default

ASTROCAST-0403, 55111

Orbit data source: Space-Track

ASTROCAST-0403, 55111 is a payload satellite owned by Astrocast (CH) in SSO that was launched on Tue, 03 Jan 2023 UTC via an FALCON 9 launch vehicle from the Air Force Eastern Test Range (AFETR). Payload-class satellites include a variety of spacecraft equipped with specific instruments for various scientific and technological missions. These include communications satellites like Starlink; space stations such as the ISS; scientific satellites like the Hubble; Earth observation satellites from companies like Planet Labs, Umbra, and HawkEye 360; GPS; miniature CubeSats for education and research; and military/defense satellites.

Loading next visibility...
Identifier
55111, 2023-001DG
Orbit
SSO
Country
Flag of CHCH / SWTZ
Related business
Manufacturer
Astrocast
Mission
Operational Commercial Communications
Bus & Motor
CUBESAT 3U, Unknown motor
Mass
4.5 kg wet, 4.5 kg dry
Launch date (UTC)
2023-01-03 (4 years ago)
Launch vehicle
FALCON 9
Launch site
Air Force Eastern Test Range (AFETR)
Object type
Payload
Rocket body
Debris
Shape & HBR
Box, 0.2 m
Radar Cross Section
0.035 m², Medium (>0.1 m² and < 1m²)

Expand to show TLE details & history
Last TLE update: 19 hours ago

TLE from 19 hours ago
0 ASTROCAST-0403
1 55111U 23001DG  26206.53642077  .00026301  00000-0  83101-3 0  9997
2 55111  97.5615 301.5105 0005410 178.9904 181.1349 15.32782034150436
Epoch: 2026-07-25T12:52Z
TLE epoch observation values (Epoch: 2026-07-25T12:52:26.754Z)
Latitude
-0.00007°
Longitude
165.15174°
Altitude
474.323 km
Speed
7.627 km/s
True Right ascension
20h 06m 02s
True Declination
0° 00' 00"
Sunlit
Object was in full shadow at epoch
Visualization orbit readout
Latitude
Unknown
Longitude
Unknown
Altitude
Unknown
Speed
Unknown
Apparent Right ascension
Unknown
Apparent Declination
Unknown
Sunlit
N/A
Visualization observer readout
Local Sidereal Time
21:11:49
Azimuth
Unknown
Elevation
Unknown
Doppler factor
Unknown
Orbital elements
Apogee altitude
468.174 km
Perigee altitude
460.77 km
Semi-major axis
6,842.609 km
Eccentricity
0.00054
Inclination
97.5615°
RAAN
301.5105°
Arg. of periapsis
178.9904°
True anomaly
181.13367°
Mean anomaly
181.1349°
Eccentric anomaly
181.13429°
Mean motion
3.83452 °/min
Orbital period
93.88 mins
BSTAR
0.00083101
Loading maneuver chart data...
Computing Atmospheric mass density...

Documentation

Showing up to 5 results
|